This is the latest recevied weather packets stored in our database for station/object KC9DRE. If no packets are shown the sender has not sent any weather packets the latest 10 day(s).
| Time | Temp. | Humidity | Pressure | Rain* | Wind** | Luminosity | Snow |
|---|---|---|---|---|---|---|---|
| 1778413699 | 15.56° C | 85% | 1013.6 hPa | 0 mm | - | 66 W/m² | - |
| 1778413397 | 14.44° C | 90% | 1013.6 hPa | 0 mm | - | 61 W/m² | - |
| 1778413097 | 13.33° C | 94% | 1013.3 hPa | 0 mm | - | 52 W/m² | - |
| 1778412794 | 12.78° C | 94% | 1013.5 hPa | 0 mm | - | 47 W/m² | - |
| 1778412491 | 12.78° C | 94% | 1013.4 hPa | 0 mm | - | 30 W/m² | - |
| 1778412187 | 12.78° C | 94% | 1013.4 hPa | 0 mm | - | 26 W/m² | - |
| 1778411883 | 12.78° C | 94% | 1013.1 hPa | 0 mm | - | 23 W/m² | - |
| 1778411580 | 12.78° C | 94% | 1013.2 hPa | 0 mm | - | 18 W/m² | - |
| 1778411280 | 12.78° C | 94% | 1013.1 hPa | 0 mm | - | 15 W/m² | - |
| 1778410978 | 12.78° C | 94% | 1013.1 hPa | 0 mm | - | 11 W/m² | - |
| 1778410678 | 12.78° C | 94% | 1013 hPa | 0 mm | - | 8 W/m² | - |
| 1778410373 | 12.78° C | 94% | 1013 hPa | 0 mm | - | 5 W/m² | - |
| 1778410070 | 12.78° C | 94% | 1013 hPa | 0 mm | - | 4 W/m² | - |
| 1778409767 | 12.78° C | 94% | 1013.2 hPa | 0 mm | - | 3 W/m² | - |
| 1778409463 | 12.78° C | 94% | 1013.1 hPa | 0 mm | - | 2 W/m² | - |
| 1778409160 | 12.78° C | 94% | 1013.1 hPa | 0 mm | - | 1 W/m² | - |
| 1778408860 | 12.78° C | 94% | 1013.2 hPa | 0 mm | - | 0 W/m² | - |
| 1778408556 | 12.78° C | 95% | 1013.1 hPa | 0 mm | - | 0 W/m² | - |
| 1778408254 | 12.78° C | 96% | 1013.2 hPa | 0 mm | - | 0 W/m² | - |
| 1778407952 | 12.78° C | 96% | 1013.1 hPa | 0 mm | - | 0 W/m² | - |
| 1778407648 | 12.78° C | 96% | 1012.9 hPa | 0 mm | - | 0 W/m² | - |
| 1778407347 | 12.78° C | 97% | 1013 hPa | 0 mm | - | 0 W/m² | - |
| 1778407047 | 12.22° C | 97% | 1012.8 hPa | 0 mm | - | 0 W/m² | - |
| 1778406742 | 12.22° C | 97% | 1012.8 hPa | 0 mm | - | 0 W/m² | - |
| 1778406441 | 12.22° C | 97% | 1012.8 hPa | 0 mm | - | 0 W/m² | - |
* Rain latest hour (hover to see other rain measurements)
** Current wind speed in m/s (hover to see current wind gust speed)